Weather History for KRAC - January, 2013

Change the Weather History Date:

Friday, January 25, 2013

  Actual Average Record
Temperature  
Mean Temperature 20 °F -  
Max Temperature 23 °F 29 °F 60 °F (1950)
Min Temperature 16 °F 14 °F -10 °F (1963)
Degree Days  
Heating Degree Days 46    
Moisture  
Dew Point 14 °F    
Average Humidity 78    
Maximum Humidity 93    
Minimum Humidity 55    
Precipitation  
Precipitation 0.02 in - - ()
Sea Level Pressure  
Sea Level Pressure 30.10 in    
Wind  
Wind Speed 8 mph (SW)    
Max Wind Speed 15 mph    
Max Gust Speed 20 mph    
Visibility 6 miles    
Events Snow    
Averages and records for this station are not official NWS values.
T = Trace of Precipitation, MM = Missing Value Source: NWS Daily Summary

Daily Weather History Graph

Daily Weather History Graph

Search for Another Location

Airport or City:

Trip Planner

Search our weather history database for the weather conditions in past years. The results will help you decide how hot, cold, wet, or windy it might be!

Date:

Astronomy

Jan. 25, 2013 Rise Set
Actual Time 7:12 AM CST 4:55 PM CST
Civil Twilight 6:41 AM CST 5:26 PM CST
Nautical Twilight 6:07 AM CST 6:00 PM CST
Astronomical Twilight 5:33 AM CST 6:33 PM CST
Moon 3:52 PM CST (1/25) 5:51 AM CST (1/25)
Length of Visible Light 10h 44m
Length of Day
9h 43m
Waxing Gibbous, 98% of the Moon is Illuminated
Jan 25
Waxing Gibbous
Jan 26
Full
Feb 3
Last Quarter
Feb 10
New
Feb 17
First Quarter

Hourly Weather History & Observations

Time (CST) Temp. Windchill Dew Point Humidity Pressure Visibility Wind Dir Wind Speed Gust Speed Precip Events Conditions
12:53 AM 19.9 °F 12.1 °F 7.0 °F 57% 30.37 in 10.0 mi SW 5.8 mph - N/A   Overcast
1:53 AM 19.9 °F 10.1 °F 8.1 °F 60% 30.34 in 10.0 mi South 8.1 mph - N/A   Overcast
2:53 AM 21.0 °F 12.4 °F 7.0 °F 55% 30.30 in 10.0 mi South 6.9 mph - N/A   Overcast
3:53 AM 19.9 °F 10.1 °F 6.1 °F 55% 30.24 in 10.0 mi SSW 8.1 mph - N/A   Overcast
4:53 AM 19.9 °F 9.3 °F 8.1 °F 60% 30.22 in 4.0 mi SSW 9.2 mph - 0.00 in Snow Light Snow
5:03 AM 19.4 °F 8.6 °F 10.4 °F 68% 30.17 in 1.8 mi SSW 9.2 mph - 0.00 in Snow Light Snow
5:27 AM 17.6 °F 7.3 °F 14.0 °F 86% 30.17 in 1.2 mi South 8.1 mph - 0.00 in Snow Light Snow
5:53 AM 18.0 °F 6.1 °F 14.0 °F 84% 30.19 in 1.2 mi South 10.4 mph - 0.01 in Snow Light Snow
6:40 AM 17.6 °F 5.7 °F 14.0 °F 86% 30.14 in 1.5 mi South 10.4 mph - 0.01 in Snow Light Snow
6:53 AM 17.1 °F 8.7 °F 14.0 °F 88% 30.17 in 2.0 mi South 5.8 mph - 0.01 in Snow Light Snow
7:07 AM 17.6 °F 6.4 °F 14.0 °F 86% 30.13 in 2.5 mi South 9.2 mph - 0.00 in Snow Light Snow
7:18 AM 17.6 °F 5.7 °F 14.0 °F 86% 30.12 in 3.0 mi South 10.4 mph - 0.00 in Snow Light Snow
7:42 AM 17.6 °F 8.2 °F 14.0 °F 86% 30.11 in 2.5 mi South 6.9 mph - 0.00 in Snow Light Snow
7:53 AM 17.1 °F 6.6 °F 14.0 °F 88% 30.14 in 4.0 mi South 8.1 mph - 0.00 in Snow Light Snow
8:53 AM 18.0 °F 4.8 °F 14.0 °F 84% 30.12 in 9.0 mi SSW 12.7 mph 17.3 mph 0.00 in   Overcast
9:53 AM 19.0 °F 6.1 °F 14.0 °F 81% 30.10 in 10.0 mi SW 12.7 mph 18.4 mph N/A   Overcast
10:53 AM 21.0 °F 9.9 °F 15.1 °F 78% 30.07 in 10.0 mi SW 10.4 mph - N/A   Overcast
11:03 AM 21.2 °F 8.3 °F 15.8 °F 80% 30.03 in 10.0 mi SW 13.8 mph - N/A   Overcast
11:15 AM 21.2 °F 12.6 °F 15.8 °F 80% 30.02 in 10.0 mi SW 6.9 mph - N/A   Overcast
11:53 AM 21.9 °F 8.7 °F 15.1 °F 75% 30.03 in 10.0 mi SW 15.0 mph 19.6 mph N/A   Overcast
12:53 PM 21.9 °F 11.7 °F 15.1 °F 75% 30.00 in 10.0 mi WSW 9.2 mph - N/A   Overcast
1:15 PM 23.0 °F 11.7 °F 15.8 °F 74% 29.96 in 10.0 mi WSW 11.5 mph - N/A   Overcast
1:53 PM 23.0 °F 12.4 °F 15.1 °F 72% 29.99 in 9.0 mi WSW 10.4 mph - N/A   Overcast
2:18 PM 23.0 °F 13.1 °F 15.8 °F 74% 29.96 in 1.8 mi WSW 9.2 mph - 0.00 in Snow Light Snow
2:35 PM 23.0 °F 14.7 °F 17.6 °F 80% 29.96 in 2.5 mi WSW 6.9 mph - 0.00 in Snow Light Snow
2:53 PM 21.9 °F 11.7 °F 17.1 °F 82% 30.00 in 3.0 mi WSW 9.2 mph - 0.00 in Snow Light Snow
3:53 PM 23.0 °F 15.8 °F 17.1 °F 78% 30.01 in 4.0 mi SW 5.8 mph - 0.00 in Snow Light Snow
4:33 PM 23.0 °F - 17.6 °F 80% 29.98 in 2.5 mi Calm Calm - 0.00 in Snow Light Snow
4:53 PM 21.9 °F - 19.0 °F 89% 30.02 in 2.0 mi Calm Calm - 0.00 in Snow Light Snow
5:28 PM 21.2 °F - 19.4 °F 93% 30.00 in 3.0 mi Calm Calm - 0.00 in Snow Light Snow
5:37 PM 21.2 °F - 19.4 °F 93% 30.00 in 2.5 mi Calm Calm - 0.00 in Snow Light Snow
5:44 PM 21.2 °F - 19.4 °F 93% 30.00 in 3.0 mi Calm Calm - 0.00 in Snow Light Snow
5:53 PM 21.9 °F - 19.9 °F 92% 30.04 in 4.0 mi Calm Calm - 0.00 in Snow Light Snow
6:53 PM 23.0 °F 13.9 °F 17.1 °F 78% 30.07 in 10.0 mi NNW 8.1 mph - 0.00 in   Overcast
7:53 PM 21.0 °F 11.4 °F 10.9 °F 65% 30.09 in 10.0 mi WNW 8.1 mph - N/A   Overcast
8:53 PM 18.0 °F 8.7 °F 10.0 °F 71% 30.11 in 10.0 mi WNW 6.9 mph - N/A   Clear
9:53 PM 17.1 °F 7.6 °F 10.0 °F 74% 30.14 in 10.0 mi NW 6.9 mph - N/A   Clear
10:53 PM 16.0 °F 7.4 °F 9.0 °F 74% 30.16 in 10.0 mi NW 5.8 mph - N/A   Clear
11:53 PM 16.0 °F 8.8 °F 9.0 °F 74% 30.20 in 10.0 mi WNW 4.6 mph - N/A   Clear